| time (UTC) | temp F | wind direction | speed MPH | gust MPH | rain 1hr in | rain 24hr in | rain mn in | humidity % | barometer mb |
| 20260506193349 | 42 | 306 | 5.0 | 6.0 | 0.00 | 0.00 | 0.00 | 51 | 1014.8 |
| 20260506192845 | 42 | 12 | 5.0 | 7.0 | 0.00 | 0.00 | 0.00 | 51 | 1014.8 |
| 20260506192342 | 42 | 335 | 5.0 | 7.0 | 0.00 | 0.00 | 0.00 | 51 | 1014.8 |
| 20260506191839 | 42 | 310 | 6.0 | 7.0 | 0.00 | 0.00 | 0.00 | 53 | 1014.9 |
| 20260506191335 | 42 | 300 | 5.0 | 6.0 | 0.00 | 0.00 | 0.00 | 53 | 1014.9 |
| 20260506190832 | 41 | 261 | 2.0 | 3.0 | 0.00 | 0.00 | 0.00 | 52 | 1015.0 |
| 20260506190328 | 41 | 262 | 3.0 | 5.0 | 0.00 | 0.00 | 0.00 | 53 | 1015.1 |
| 20260506185825 | 41 | 291 | 2.0 | 3.0 | 0.00 | 0.00 | 0.00 | 53 | 1015.1 |
| 20260506185322 | 41 | 316 | 5.0 | 6.0 | 0.00 | 0.00 | 0.00 | 53 | 1015.0 |
| 20260506184819 | 41 | 300 | 8.0 | 9.0 | 0.00 | 0.00 | 0.00 | 52 | 1015.0 |
| 20260506184317 | 41 | 292 | 6.0 | 8.0 | 0.00 | 0.00 | 0.00 | 52 | 1015.1 |
| 20260506183814 | 41 | 236 | 3.0 | 5.0 | 0.00 | 0.00 | 0.00 | 54 | 1015.1 |
| 20260506183309 | 41 | 3 | 3.0 | 3.0 | 0.00 | 0.00 | 0.00 | 54 | 1015.1 |
| 20260506182806 | 41 | 337 | 4.0 | 6.0 | 0.00 | 0.00 | 0.00 | 53 | 1015.0 |
| 20260506182306 | 41 | 358 | 3.0 | 3.0 | 0.00 | 0.00 | 0.00 | 53 | 1015.3 |
| 20260506181801 | 41 | 311 | 3.0 | 5.0 | 0.00 | 0.00 | 0.00 | 53 | 1015.2 |
| 20260506181259 | 41 | 279 | 3.0 | 3.0 | 0.00 | 0.00 | 0.00 | 54 | 1015.3 |
| 20260506180756 | 41 | 283 | 5.0 | 7.0 | 0.00 | 0.00 | 0.00 | 53 | 1015.3 |
| 20260506180251 | 41 | 6 | 5.0 | 6.0 | 0.00 | 0.00 | 0.00 | 53 | 1015.2 |
| 20260506175748 | 41 | 1 | 5.0 | 6.0 | 0.00 | 0.00 | 0.00 | 53 | 1015.2 |
| 20260506175245 | 41 | 309 | 6.0 | 7.0 | 0.00 | 0.00 | 0.00 | 54 | 1015.2 |
| 20260506174742 | 41 | 307 | 4.0 | 5.0 | 0.00 | 0.00 | 0.00 | 54 | 1015.3 |
| 20260506174239 | 41 | 332 | 5.0 | 6.0 | 0.00 | 0.00 | 0.00 | 54 | 1015.4 |
| 20260506173737 | 40 | 305 | 3.0 | 5.0 | 0.00 | 0.00 | 0.00 | 55 | 1015.3 |
| 20260506173234 | 40 | 335 | 5.0 | 6.0 | 0.00 | 0.00 | 0.00 | 54 | 1015.3 |
| 20260506172731 | 40 | 294 | 7.0 | 7.0 | 0.00 | 0.00 | 0.00 | 55 | 1015.5 |
| 20260506172227 | 40 | 312 | 3.0 | 3.0 | 0.00 | 0.00 | 0.00 | 55 | 1015.4 |
| 20260506171725 | 40 | 13 | 7.0 | 9.0 | 0.00 | 0.00 | 0.00 | 56 | 1015.6 |
| 20260506171222 | 40 | 311 | 5.0 | 7.0 | 0.00 | 0.00 | 0.00 | 55 | 1015.3 |
| 20260506170719 | 40 | 317 | 7.0 | 7.0 | 0.00 | 0.00 | 0.00 | 55 | 1015.6 |
| 20260506170216 | 40 | 290 | 3.0 | 6.0 | 0.00 | 0.00 | 0.00 | 56 | 1015.5 |
| 20260506165714 | 40 | 293 | 3.0 | 5.0 | 0.00 | 0.00 | 0.00 | 56 | 1015.7 |
| 20260506165211 | 40 | 1 | 3.0 | 3.0 | 0.00 | 0.00 | 0.00 | 56 | 1015.7 |
| 20260506164708 | 40 | 19 | 7.0 | 8.0 | 0.00 | 0.00 | 0.00 | 55 | 1015.7 |
| 20260506164205 | 39 | 26 | 4.0 | 6.0 | 0.00 | 0.00 | 0.00 | 56 | 1015.6 |
| 20260506163701 | 40 | 4 | 4.0 | 6.0 | 0.00 | 0.00 | 0.00 | 56 | 1015.6 |
| 20260506163157 | 40 | 348 | 5.0 | 5.0 | 0.00 | 0.00 | 0.00 | 56 | 1015.5 |
| 20260506162653 | 40 | 337 | 5.0 | 7.0 | 0.00 | 0.00 | 0.00 | 56 | 1015.5 |
| 20260506162151 | 40 | 288 | 8.0 | 9.0 | 0.00 | 0.00 | 0.00 | 56 | 1015.7 |
| 20260506161648 | 39 | 345 | 3.0 | 3.0 | 0.00 | 0.00 | 0.00 | 57 | 1015.5 |
| 20260506161144 | 39 | 307 | 5.0 | 6.0 | 0.00 | 0.00 | 0.00 | 57 | 1015.6 |
| 20260506160642 | 40 | 231 | 3.0 | 3.0 | 0.00 | 0.00 | 0.00 | 58 | 1015.5 |
| 20260506160139 | 39 | 303 | 3.0 | 3.0 | 0.00 | 0.00 | 0.00 | 58 | 1015.7 |
| 20260506155638 | 39 | 339 | 3.0 | 3.0 | 0.00 | 0.00 | 0.00 | 58 | 1015.6 |
| 20260506155134 | 39 | 313 | 4.0 | 5.0 | 0.00 | 0.00 | 0.00 | 57 | 1015.6 |
| 20260506153236 | 38 | 32 | 4.0 | 5.0 | 0.00 | 0.00 | 0.00 | 58 | 1015.7 |
| 20260506152733 | 38 | 351 | 6.0 | 8.0 | 0.00 | 0.00 | 0.00 | 58 | 1015.5 |
| 20260506152230 | 38 | 316 | 5.0 | 7.0 | 0.00 | 0.00 | 0.00 | 58 | 1015.6 |
| 20260506151730 | 39 | 320 | 5.0 | 6.0 | 0.00 | 0.00 | 0.00 | 57 | 1015.7 |
| 20260506151225 | 39 | 320 | 5.0 | 7.0 | 0.00 | 0.00 | 0.00 | 58 | 1015.5 |
| 20260506150722 | 38 | 331 | 3.0 | 3.0 | 0.00 | 0.00 | 0.00 | 58 | 1015.6 |
| 20260506150219 | 38 | 309 | 4.0 | 6.0 | 0.00 | 0.00 | 0.00 | 57 | 1015.4 |
| 20260506145716 | 38 | 38 | 6.0 | 8.0 | 0.00 | 0.00 | 0.00 | 58 | 1015.6 |
| 20260506145213 | 38 | 296 | 3.0 | 3.0 | 0.00 | 0.00 | 0.00 | 57 | 1015.6 |
| 20260506144710 | 38 | 348 | 5.0 | 8.0 | 0.00 | 0.00 | 0.00 | 58 | 1015.5 |
| 20260506144207 | 38 | 302 | 7.0 | 7.0 | 0.00 | 0.00 | 0.00 | 57 | 1015.5 |
| 20260506143705 | 37 | 315 | 6.0 | 8.0 | 0.00 | 0.00 | 0.00 | 57 | 1015.5 |
| 20260506143202 | 37 | 329 | 7.0 | 7.0 | 0.00 | 0.00 | 0.00 | 57 | 1015.5 |
| 20260506142701 | 38 | 1 | 6.0 | 8.0 | 0.00 | 0.00 | 0.00 | 57 | 1015.5 |
| 20260506142158 | 38 | 292 | 5.0 | 6.0 | 0.00 | 0.00 | 0.00 | 58 | 1015.4 |
| 20260506141656 | 38 | 331 | 5.0 | 6.0 | 0.00 | 0.00 | 0.00 | 57 | 1015.6 |
| 20260506141154 | 38 | 307 | 7.0 | 9.0 | 0.00 | 0.00 | 0.00 | 57 | 1015.4 |
| 20260506140651 | 38 | 349 | 8.0 | 11.0 | 0.00 | 0.00 | 0.00 | 58 | 1015.4 |
| 20260506140148 | 38 | 18 | 5.0 | 8.0 | 0.00 | 0.00 | 0.00 | 58 | 1015.5 |
| 20260506135645 | 38 | 312 | 6.0 | 7.0 | 0.00 | 0.00 | 0.00 | 58 | 1015.3 |
| 20260506135141 | 38 | 305 | 4.0 | 5.0 | 0.00 | 0.00 | 0.00 | 58 | 1015.3 |
| 20260506134638 | 38 | 308 | 4.0 | 5.0 | 0.00 | 0.00 | 0.00 | 59 | 1015.3 |
| 20260506134133 | 38 | 313 | 5.0 | 8.0 | 0.00 | 0.00 | 0.00 | 59 | 1015.2 |
| 20260506133631 | 37 | 313 | 5.0 | 7.0 | 0.00 | 0.00 | 0.00 | 59 | 1015.1 |
| 20260506133128 | 37 | 298 | 7.0 | 8.0 | 0.00 | 0.00 | 0.00 | 60 | 1015.2 |
| 20260506132625 | 37 | 307 | 6.0 | 7.0 | 0.00 | 0.00 | 0.00 | 60 | 1015.2 |
| 20260506132122 | 37 | 275 | 3.0 | 3.0 | 0.00 | 0.00 | 0.00 | 61 | 1015.0 |
| 20260506131620 | 37 | 308 | 3.0 | 3.0 | 0.00 | 0.00 | 0.00 | 63 | 1015.0 |
| 20260506131116 | 37 | 28 | 4.0 | 5.0 | 0.00 | 0.00 | 0.00 | 62 | 1015.0 |
| 20260506130613 | 37 | 340 | 4.0 | 5.0 | 0.00 | 0.00 | 0.00 | 62 | 1015.0 |
| 20260506130110 | 37 | 286 | 4.0 | 5.0 | 0.00 | 0.00 | 0.00 | 62 | 1015.0 |
| 20260506125608 | 37 | 332 | 4.0 | 5.0 | 0.00 | 0.00 | 0.00 | 63 | 1014.8 |
| 20260506125106 | 36 | 320 | 3.0 | 3.0 | 0.00 | 0.00 | 0.00 | 64 | 1014.7 |
| 20260506124603 | 36 | 289 | 4.0 | 5.0 | 0.00 | 0.00 | 0.00 | 64 | 1014.7 |
| 20260506124101 | 35 | 306 | 4.0 | 5.0 | 0.00 | 0.00 | 0.00 | 66 | 1014.6 |
| 20260506123558 | 35 | 333 | 2.0 | 3.0 | 0.00 | 0.00 | 0.00 | 67 | 1014.7 |
| 20260506123057 | 35 | 304 | 3.0 | 5.0 | 0.00 | 0.00 | 0.00 | 67 | 1014.5 |
| 20260506122553 | 35 | 316 | 3.0 | 3.0 | 0.00 | 0.00 | 0.00 | 68 | 1014.4 |
| 20260506122051 | 34 | 293 | 2.0 | 2.0 | 0.00 | 0.00 | 0.00 | 70 | 1014.5 |
| 20260506121548 | 34 | 283 | 2.0 | 2.0 | 0.00 | 0.00 | 0.00 | 70 | 1014.3 |
| 20260506121044 | 34 | 339 | 2.0 | 2.0 | 0.00 | 0.00 | 0.00 | 71 | 1014.3 |
| 20260506120543 | 33 | 282 | 2.0 | 3.0 | 0.00 | 0.00 | 0.00 | 71 | 1014.3 |
| 20260506120040 | 33 | 312 | 3.0 | 3.0 | 0.00 | 0.00 | 0.00 | 72 | 1014.2 |
| 20260506115538 | 33 | 277 | 1.0 | 2.0 | 0.00 | 0.00 | 0.00 | 72 | 1014.2 |
| 20260506115036 | 33 | 262 | 2.0 | 2.0 | 0.00 | 0.00 | 0.00 | 73 | 1014.0 |
| 20260506114533 | 33 | 308 | 2.0 | 2.0 | 0.00 | 0.00 | 0.00 | 73 | 1014.0 |
| 20260506114031 | 33 | 286 | 2.0 | 2.0 | 0.00 | 0.00 | 0.00 | 73 | 1013.9 |
| 20260506113529 | 32 | 260 | 1.0 | 1.0 | 0.00 | 0.00 | 0.00 | 73 | 1014.0 |
| 20260506113026 | 32 | 260 | 1.0 | 1.0 | 0.00 | 0.00 | 0.00 | 73 | 1013.9 |
| 20260506112522 | 32 | 217 | 1.0 | 1.0 | 0.00 | 0.00 | 0.00 | 74 | 1013.9 |
| 20260506112020 | 32 | 224 | 0.0 | 0.0 | 0.00 | 0.00 | 0.00 | 74 | 1014.0 |
| 20260506111518 | 32 | 259 | 1.0 | 1.0 | 0.00 | 0.00 | 0.00 | 74 | 1014.0 |
| 20260506111015 | 32 | 248 | 1.0 | 1.0 | 0.00 | 0.00 | 0.00 | 74 | 1014.1 |
| 20260506110512 | 32 | 258 | 2.0 | 2.0 | 0.00 | 0.00 | 0.00 | 75 | 1014.1 |
| 20260506110009 | 32 | 236 | 1.0 | 2.0 | 0.00 | 0.00 | 0.00 | 75 | 1014.1 |
| 20260506105505 | 32 | 258 | 1.0 | 2.0 | 0.00 | 0.00 | 0.00 | 75 | 1014.0 |
| 20260506105003 | 32 | 228 | 1.0 | 1.0 | 0.00 | 0.00 | 0.00 | 75 | 1014.2 |
| 20260506104501 | 32 | 260 | 2.0 | 2.0 | 0.00 | 0.00 | 0.00 | 75 | 1014.2 |
| 20260506103958 | 31 | 260 | 2.0 | 2.0 | 0.00 | 0.00 | 0.00 | 75 | 1014.0 |
| 20260506103455 | 31 | 234 | 1.0 | 2.0 | 0.00 | 0.00 | 0.00 | 75 | 1013.7 |
| 20260506102952 | 31 | 248 | 1.0 | 1.0 | 0.00 | 0.00 | 0.00 | 75 | 1013.8 |
| 20260506102450 | 31 | 260 | 1.0 | 1.0 | 0.00 | 0.00 | 0.00 | 75 | 1013.7 |
| 20260506101947 | 31 | 259 | 1.0 | 2.0 | 0.00 | 0.00 | 0.00 | 75 | 1013.5 |
| 20260506101444 | 31 | 239 | 1.0 | 1.0 | 0.00 | 0.00 | 0.00 | 76 | 1013.6 |
| 20260506100941 | 31 | 240 | 1.0 | 1.0 | 0.00 | 0.00 | 0.00 | 76 | 1013.5 |
| 20260506100439 | 31 | 240 | 1.0 | 1.0 | 0.00 | 0.00 | 0.00 | 76 | 1013.4 |
| 20260506095937 | 31 | 224 | 0.0 | 0.0 | 0.00 | 0.00 | 0.00 | 76 | 1013.4 |
| 20260506095436 | 31 | 228 | 0.0 | 0.0 | 0.00 | 0.00 | 0.00 | 76 | 1013.6 |
| 20260506094931 | 31 | 228 | 0.0 | 0.0 | 0.00 | 0.00 | 0.00 | 76 | 1013.5 |
| 20260506094430 | 31 | 222 | 0.0 | 0.0 | 0.00 | 0.00 | 0.00 | 76 | 1013.7 |
| 20260506093927 | 32 | 213 | 0.0 | 0.0 | 0.00 | 0.00 | 0.00 | 75 | 1013.7 |
| 20260506093425 | 32 | 218 | 0.0 | 0.0 | 0.00 | 0.00 | 0.00 | 73 | 1013.4 |
| 20260506092923 | 32 | 216 | 0.0 | 0.0 | 0.00 | 0.00 | 0.00 | 72 | 1013.5 |
| 20260506092420 | 32 | 239 | 1.0 | 1.0 | 0.00 | 0.00 | 0.00 | 72 | 1013.4 |
| 20260506091916 | 32 | 225 | 0.0 | 0.0 | 0.00 | 0.00 | 0.00 | 72 | 1013.5 |
| 20260506091415 | 32 | 227 | 0.0 | 0.0 | 0.00 | 0.00 | 0.00 | 71 | 1013.4 |
| 20260506090912 | 32 | 220 | 0.0 | 0.0 | 0.00 | 0.00 | 0.00 | 71 | 1013.5 |
| 20260506090409 | 32 | 224 | 0.0 | 1.0 | 0.00 | 0.00 | 0.00 | 71 | 1013.4 |
| 20260506085906 | 32 | 259 | 1.0 | 1.0 | 0.00 | 0.00 | 0.00 | 71 | 1013.2 |
| 20260506085403 | 32 | 232 | 1.0 | 1.0 | 0.00 | 0.00 | 0.00 | 71 | 1013.2 |
| 20260506084859 | 32 | 228 | 0.0 | 0.0 | 0.00 | 0.00 | 0.00 | 70 | 1013.0 |
| 20260506084355 | 32 | 240 | 1.0 | 1.0 | 0.00 | 0.00 | 0.00 | 70 | 1013.0 |
| 20260506083852 | 32 | 239 | 1.0 | 1.0 | 0.00 | 0.00 | 0.00 | 70 | 1013.0 |
| 20260506083350 | 32 | 229 | 0.0 | 1.0 | 0.00 | 0.00 | 0.00 | 70 | 1013.1 |
| 20260506082847 | 32 | 248 | 1.0 | 1.0 | 0.00 | 0.00 | 0.00 | 70 | 1012.9 |
| 20260506082344 | 32 | 228 | 1.0 | 1.0 | 0.00 | 0.00 | 0.00 | 70 | 1013.4 |
| 20260506081839 | 32 | 229 | 1.0 | 1.0 | 0.00 | 0.00 | 0.00 | 70 | 1013.2 |
| 20260506081338 | 32 | 244 | 0.0 | 0.0 | 0.00 | 0.00 | 0.00 | 70 | 1013.2 |
| 20260506080835 | 33 | 229 | 0.0 | 0.0 | 0.00 | 0.00 | 0.00 | 69 | 1013.4 |
| 20260506080331 | 33 | 219 | 0.0 | 0.0 | 0.00 | 0.00 | 0.00 | 69 | 1013.1 |
| 20260506073316 | 30 | 214 | 0.0 | 0.0 | 0.00 | 0.00 | 0.00 | 77 | 1012.7 |
| 20260506072812 | 30 | 215 | 0.0 | 0.0 | 0.00 | 0.00 | 0.00 | 75 | 1012.7 |
| 20260506072310 | 31 | 215 | 0.0 | 0.0 | 0.00 | 0.00 | 0.00 | 72 | 1012.9 |
| 20260506071807 | 32 | 215 | 0.0 | 0.0 | 0.00 | 0.00 | 0.00 | 71 | 1012.8 |
| 20260506071306 | 32 | 218 | 0.0 | 0.0 | 0.00 | 0.00 | 0.00 | 70 | 1012.9 |
| 20260506070802 | 32 | 217 | 0.0 | 0.0 | 0.00 | 0.00 | 0.00 | 70 | 1012.9 |
| 20260506070259 | 32 | 217 | 0.0 | 0.0 | 0.00 | 0.00 | 0.00 | 70 | 1012.9 |
| 20260506062236 | 35 | 208 | 0.0 | 0.0 | 0.00 | 0.00 | 0.00 | 64 | 1012.9 |
| 20260506061732 | 35 | 241 | 0.0 | 0.0 | 0.00 | 0.00 | 0.00 | 64 | 1013.0 |
| 20260506061230 | 35 | 275 | 0.0 | 1.0 | 0.00 | 0.00 | 0.00 | 64 | 1012.9 |
| 20260506060728 | 35 | 304 | 2.0 | 2.0 | 0.00 | 0.00 | 0.00 | 63 | 1012.8 |
| 20260506060225 | 35 | 261 | 1.0 | 2.0 | 0.00 | 0.00 | 0.00 | 63 | 1013.0 |
| 20260506051157 | 36 | 256 | 1.0 | 2.0 | 0.00 | 0.00 | 0.00 | 61 | 1012.5 |
| 20260506050655 | 36 | 351 | 2.0 | 2.0 | 0.00 | 0.00 | 0.00 | 61 | 1012.5 |
| 20260506050152 | 37 | 10 | 3.0 | 3.0 | 0.00 | 0.00 | 0.00 | 60 | 1012.4 |
| 20260506044643 | 37 | 356 | 3.0 | 3.0 | 0.00 | 0.00 | 0.00 | 60 | 1012.4 |
| 20260506044140 | 37 | 350 | 5.0 | 7.0 | 0.00 | 0.00 | 0.00 | 59 | 1012.4 |
| 20260506043637 | 37 | 0 | 5.0 | 6.0 | 0.00 | 0.00 | 0.00 | 59 | 1012.5 |
| 20260506043135 | 37 | 14 | 3.0 | 3.0 | 0.00 | 0.00 | 0.00 | 58 | 1012.4 |
| 20260506042634 | 38 | 12 | 3.0 | 5.0 | 0.00 | 0.00 | 0.00 | 58 | 1012.3 |
| 20260506042131 | 38 | 357 | 2.0 | 2.0 | 0.00 | 0.00 | 0.00 | 58 | 1012.3 |
| 20260506041630 | 38 | 289 | 5.0 | 7.0 | 0.00 | 0.00 | 0.00 | 57 | 1012.3 |
| 20260506041126 | 38 | 285 | 2.0 | 2.0 | 0.00 | 0.00 | 0.00 | 57 | 1012.2 |
| 20260506040624 | 38 | 297 | 2.0 | 2.0 | 0.00 | 0.00 | 0.00 | 57 | 1012.4 |
| 20260506040120 | 38 | 251 | 1.0 | 2.0 | 0.00 | 0.00 | 0.00 | 56 | 1012.2 |
| 20260506035617 | 39 | 312 | 2.0 | 2.0 | 0.00 | 0.00 | 0.00 | 56 | 1012.0 |
| 20260506035114 | 39 | 353 | 4.0 | 5.0 | 0.00 | 0.00 | 0.00 | 56 | 1012.1 |
| 20260506034611 | 39 | 284 | 2.0 | 2.0 | 0.00 | 0.00 | 0.00 | 56 | 1012.0 |
| 20260506034108 | 39 | 340 | 3.0 | 3.0 | 0.00 | 0.00 | 0.00 | 56 | 1012.0 |
| 20260506033605 | 39 | 330 | 3.0 | 3.0 | 0.00 | 0.00 | 0.00 | 56 | 1011.9 |
| 20260506033102 | 39 | 266 | 2.0 | 2.0 | 0.00 | 0.00 | 0.00 | 56 | 1012.0 |
| 20260506032559 | 39 | 324 | 3.0 | 3.0 | 0.00 | 0.00 | 0.00 | 56 | 1011.8 |
| 20260506032056 | 39 | 274 | 1.0 | 2.0 | 0.00 | 0.00 | 0.00 | 56 | 1011.9 |
| 20260506031554 | 39 | 269 | 2.0 | 2.0 | 0.00 | 0.00 | 0.00 | 55 | 1011.9 |
| 20260506031050 | 40 | 306 | 3.0 | 3.0 | 0.00 | 0.00 | 0.00 | 55 | 1011.8 |
| 20260506030549 | 40 | 327 | 3.0 | 3.0 | 0.00 | 0.00 | 0.00 | 54 | 1011.8 |
| 20260506030046 | 40 | 359 | 3.0 | 5.0 | 0.00 | 0.00 | 0.00 | 55 | 1011.8 |
| 20260506025542 | 40 | 5 | 5.0 | 7.0 | 0.00 | 0.00 | 0.00 | 55 | 1011.8 |
| 20260506025038 | 40 | 356 | 5.0 | 5.0 | 0.00 | 0.00 | 0.00 | 55 | 1011.7 |
| 20260506024536 | 40 | 324 | 4.0 | 5.0 | 0.00 | 0.00 | 0.00 | 54 | 1011.7 |
| 20260506024032 | 41 | 328 | 3.0 | 3.0 | 0.00 | 0.00 | 0.00 | 55 | 1011.6 |
| 20260506023528 | 41 | 299 | 3.0 | 5.0 | 0.00 | 0.00 | 0.00 | 54 | 1011.5 |
| 20260506023026 | 41 | 6 | 5.0 | 6.0 | 0.00 | 0.00 | 0.00 | 54 | 1011.4 |
| 20260506022523 | 41 | 7 | 5.0 | 8.0 | 0.00 | 0.00 | 0.00 | 54 | 1011.3 |
| 20260506022020 | 41 | 358 | 4.0 | 6.0 | 0.00 | 0.00 | 0.00 | 54 | 1011.2 |
| 20260506021518 | 42 | 323 | 4.0 | 5.0 | 0.00 | 0.00 | 0.00 | 53 | 1011.2 |
| 20260506021015 | 42 | 37 | 7.0 | 11.0 | 0.00 | 0.00 | 0.00 | 52 | 1011.1 |
| 20260506020513 | 42 | 0 | 7.0 | 8.0 | 0.00 | 0.00 | 0.00 | 52 | 1011.1 |
| 20260506020010 | 42 | 329 | 4.0 | 5.0 | 0.00 | 0.00 | 0.00 | 52 | 1011.2 |
| 20260506015507 | 43 | 330 | 4.0 | 5.0 | 0.00 | 0.00 | 0.00 | 51 | 1010.9 |
| 20260506015004 | 43 | 324 | 3.0 | 5.0 | 0.00 | 0.00 | 0.00 | 51 | 1010.9 |
| 20260506014501 | 44 | 306 | 6.0 | 7.0 | 0.00 | 0.00 | 0.00 | 50 | 1010.8 |
| 20260506013957 | 44 | 309 | 5.0 | 6.0 | 0.00 | 0.00 | 0.00 | 50 | 1010.6 |
| 20260506013455 | 44 | 357 | 4.0 | 5.0 | 0.00 | 0.00 | 0.00 | 49 | 1010.6 |
| 20260506012951 | 44 | 332 | 3.0 | 3.0 | 0.00 | 0.00 | 0.00 | 49 | 1010.5 |
| 20260506012448 | 44 | 18 | 5.0 | 7.0 | 0.00 | 0.00 | 0.00 | 48 | 1010.3 |
| 20260506011945 | 44 | 281 | 4.0 | 5.0 | 0.00 | 0.00 | 0.00 | 48 | 1010.2 |
| 20260506011442 | 44 | 254 | 2.0 | 2.0 | 0.00 | 0.00 | 0.00 | 49 | 1010.4 |
| 20260506010939 | 45 | 15 | 4.0 | 5.0 | 0.00 | 0.00 | 0.00 | 48 | 1010.2 |
| 20260506010438 | 45 | 357 | 4.0 | 6.0 | 0.00 | 0.00 | 0.00 | 46 | 1010.1 |
| 20260506005933 | 45 | 264 | 2.0 | 2.0 | 0.00 | 0.00 | 0.00 | 47 | 1010.2 |
| 20260506005432 | 45 | 299 | 3.0 | 3.0 | 0.00 | 0.00 | 0.00 | 46 | 1010.2 |
| 20260506004926 | 45 | 298 | 5.0 | 6.0 | 0.00 | 0.00 | 0.00 | 46 | 1010.2 |
| 20260506004425 | 46 | 305 | 4.0 | 5.0 | 0.00 | 0.00 | 0.00 | 45 | 1010.0 |
| 20260506003920 | 46 | 300 | 6.0 | 7.0 | 0.00 | 0.00 | 0.00 | 44 | 1010.1 |
| 20260506003417 | 46 | 320 | 4.0 | 6.0 | 0.00 | 0.00 | 0.00 | 44 | 1010.0 |
| 20260506002914 | 46 | 292 | 2.0 | 5.0 | 0.00 | 0.00 | 0.00 | 45 | 1010.0 |
| 20260506002410 | 47 | 10 | 7.0 | 8.0 | 0.00 | 0.00 | 0.00 | 44 | 1009.6 |
| 20260506001905 | 47 | 303 | 5.0 | 7.0 | 0.00 | 0.00 | 0.00 | 44 | 1009.8 |
| 20260506001403 | 47 | 349 | 9.0 | 10.0 | 0.00 | 0.00 | 0.00 | 44 | 1009.6 |
| 20260506000900 | 46 | 31 | 4.0 | 5.0 | 0.00 | 0.00 | 0.00 | 45 | 1009.6 |
| 20260506000357 | 46 | 341 | 4.0 | 5.0 | 0.00 | 0.00 | 0.00 | 45 | 1009.4 |
| 20260505235854 | 46 | 330 | 6.0 | 8.0 | 0.00 | 0.00 | 0.00 | 45 | 1009.4 |
| 20260505235352 | 47 | 359 | 7.0 | 9.0 | 0.00 | 0.00 | 0.00 | 45 | 1009.5 |
| 20260505234848 | 47 | 316 | 3.0 | 3.0 | 0.00 | 0.00 | 0.00 | 46 | 1009.5 |
| 20260505234346 | 47 | 351 | 3.0 | 3.0 | 0.00 | 0.00 | 0.00 | 44 | 1009.4 |
| 20260505233842 | 47 | 289 | 6.0 | 7.0 | 0.00 | 0.00 | 0.00 | 44 | 1009.3 |
| 20260505233341 | 47 | 326 | 5.0 | 6.0 | 0.00 | 0.00 | 0.00 | 43 | 1009.4 |
| 20260505232838 | 47 | 329 | 5.0 | 6.0 | 0.00 | 0.00 | 0.00 | 43 | 1009.2 |
| 20260505232336 | 48 | 300 | 5.0 | 6.0 | 0.00 | 0.00 | 0.00 | 42 | 1009.2 |
| 20260505231832 | 48 | 351 | 4.0 | 7.0 | 0.00 | 0.00 | 0.00 | 42 | 1009.0 |
| 20260505231330 | 47 | 324 | 8.0 | 10.0 | 0.00 | 0.00 | 0.00 | 42 | 1009.1 |
| 20260505230828 | 47 | 9 | 4.0 | 5.0 | 0.00 | 0.00 | 0.00 | 43 | 1009.0 |
| 20260505230324 | 48 | 302 | 5.0 | 6.0 | 0.00 | 0.00 | 0.00 | 42 | 1009.0 |
| 20260505225821 | 48 | 305 | 3.0 | 3.0 | 0.00 | 0.00 | 0.00 | 42 | 1009.0 |
| 20260505225319 | 48 | 338 | 5.0 | 6.0 | 0.00 | 0.00 | 0.00 | 43 | 1009.2 |
| 20260505224813 | 48 | 334 | 4.0 | 5.0 | 0.00 | 0.00 | 0.00 | 42 | 1009.1 |
| 20260505224312 | 48 | 312 | 4.0 | 5.0 | 0.00 | 0.00 | 0.00 | 42 | 1009.1 |
| 20260505223808 | 48 | 266 | 3.0 | 3.0 | 0.00 | 0.00 | 0.00 | 42 | 1008.9 |
| 20260505223306 | 48 | 334 | 5.0 | 6.0 | 0.00 | 0.00 | 0.00 | 42 | 1009.0 |
| 20260505222801 | 48 | 277 | 7.0 | 8.0 | 0.00 | 0.00 | 0.00 | 41 | 1009.0 |
| 20260505222257 | 48 | 287 | 7.0 | 9.0 | 0.00 | 0.00 | 0.00 | 41 | 1009.0 |
| 20260505221755 | 48 | 276 | 5.0 | 7.0 | 0.00 | 0.00 | 0.00 | 41 | 1009.0 |
| 20260505221251 | 48 | 359 | 7.0 | 8.0 | 0.00 | 0.00 | 0.00 | 42 | 1009.2 |
| 20260505220748 | 48 | 277 | 7.0 | 9.0 | 0.00 | 0.00 | 0.00 | 41 | 1008.9 |
| 20260505220245 | 48 | 286 | 5.0 | 6.0 | 0.00 | 0.00 | 0.00 | 41 | 1008.8 |
| 20260505215743 | 48 | 280 | 3.0 | 3.0 | 0.00 | 0.00 | 0.00 | 42 | 1009.1 |
| 20260505215241 | 48 | 277 | 6.0 | 7.0 | 0.00 | 0.00 | 0.00 | 42 | 1009.0 |
| 20260505214739 | 48 | 312 | 6.0 | 9.0 | 0.00 | 0.00 | 0.00 | 41 | 1009.2 |
| 20260505214236 | 48 | 316 | 5.0 | 7.0 | 0.00 | 0.00 | 0.00 | 41 | 1009.1 |
| 20260505213733 | 49 | 279 | 5.0 | 6.0 | 0.00 | 0.00 | 0.00 | 41 | 1009.0 |
| 20260505213230 | 50 | 259 | 5.0 | 6.0 | 0.00 | 0.00 | 0.00 | 40 | 1009.3 |
| 20260505212726 | 48 | 315 | 5.0 | 6.0 | 0.00 | 0.00 | 0.00 | 43 | 1009.2 |
| 20260505212224 | 47 | 296 | 3.0 | 3.0 | 0.00 | 0.00 | 0.00 | 43 | 1009.3 |
| 20260505211720 | 47 | 312 | 10.0 | 10.0 | 0.00 | 0.00 | 0.00 | 42 | 1009.2 |
| 20260505211218 | 47 | 307 | 8.0 | 10.0 | 0.00 | 0.00 | 0.00 | 43 | 1009.2 |
| 20260505210714 | 47 | 302 | 6.0 | 6.0 | 0.00 | 0.00 | 0.00 | 42 | 1009.3 |
| 20260505210211 | 47 | 297 | 4.0 | 6.0 | 0.00 | 0.00 | 0.00 | 43 | 1009.4 |
| 20260505205709 | 48 | 306 | 4.0 | 5.0 | 0.00 | 0.00 | 0.00 | 43 | 1009.4 |
| 20260505205207 | 47 | 324 | 5.0 | 6.0 | 0.00 | 0.00 | 0.00 | 42 | 1009.5 |
| 20260505204703 | 48 | 293 | 4.0 | 5.0 | 0.00 | 0.00 | 0.00 | 44 | 1009.5 |
| 20260505204201 | 48 | 320 | 3.0 | 5.0 | 0.00 | 0.00 | 0.00 | 43 | 1009.2 |
| 20260505203658 | 48 | 280 | 4.0 | 5.0 | 0.00 | 0.00 | 0.00 | 43 | 1009.3 |
| 20260505203154 | 48 | 323 | 5.0 | 6.0 | 0.00 | 0.00 | 0.00 | 42 | 1009.3 |
| 20260505202650 | 48 | 318 | 6.0 | 7.0 | 0.00 | 0.00 | 0.00 | 42 | 1009.3 |
| 20260505202146 | 47 | 263 | 4.0 | 5.0 | 0.00 | 0.00 | 0.00 | 42 | 1009.3 |
| 20260505201643 | 48 | 264 | 8.0 | 9.0 | 0.00 | 0.00 | 0.00 | 42 | 1009.5 |
| 20260505201141 | 49 | 283 | 4.0 | 5.0 | 0.00 | 0.00 | 0.00 | 40 | 1009.4 |
| 20260505200639 | 48 | 316 | 4.0 | 5.0 | 0.00 | 0.00 | 0.00 | 43 | 1009.5 |
| 20260505200135 | 48 | 300 | 3.0 | 5.0 | 0.00 | 0.00 | 0.00 | 41 | 1009.6 |
| 20260505195632 | 48 | 285 | 10.0 | 13.0 | 0.00 | 0.00 | 0.00 | 43 | 1009.4 |
| 20260505195129 | 48 | 302 | 9.0 | 10.0 | 0.00 | 0.00 | 0.00 | 42 | 1009.3 |
| 20260505194626 | 48 | 314 | 4.0 | 6.0 | 0.00 | 0.00 | 0.00 | 43 | 1009.5 |
| 20260505194122 | 49 | 293 | 2.0 | 2.0 | 0.00 | 0.00 | 0.00 | 40 | 1009.5 |
| 20260505193619 | 47 | 288 | 4.0 | 5.0 | 0.00 | 0.00 | 0.00 | 43 | 1009.4 |